Location: *
(47.7936°N, 6.5633°E)
Time: 16:38:19
(UTC+00:00)

Daily predictions for brighter satellites

Satellite Brightness Start Highest point End
(mag) Time Altitude Azimuth Time Altitude Azimuth Time Altitude Azimuth
Starlink P 3.0 16:48:24 10° WSW 16:51:25 62° NNW 16:54:26 10° ENE
COSMOS 2428 3.0 16:46:00 10° NNW 16:51:46 79° WSW 16:57:29 10° SSE
Starlink U 3.1 16:49:57 10° WSW 16:52:58 61° NNW 16:55:59 10° ENE
Cosmos 2298 Rocket 4.2 16:49:14 10° SSW 16:54:33 80° WNW 16:59:55 10° NNE
Starlink B 3.1 16:51:32 10° WSW 16:54:33 60° NNW 16:57:34 10° ENE
PSLV R/B 3.9 16:51:07 10° NNE 16:55:12 77° ESE 16:59:17 10° S
Meteor 2-1 Rocket 4.4 16:49:58 10° N 16:55:16 46° ENE 17:00:34 10° SE
Starlink AR 2.9 16:53:02 10° W 16:55:33 48° NNW 16:58:04 10° NE
Cosmos 1812 Rocket 3.7 16:54:55 10° N 16:59:19 54° ENE 17:03:42 10° SSE
Cosmos 1939 Rocket 4.4 16:57:22 10° E 16:59:43 15° ENE 17:02:06 10° NNE
Starlink D 3.2 16:59:48 10° W 17:02:48 54° NNW 17:05:42 11° ENE
Starlink S 3.3 17:01:10 10° W 17:04:10 52° NNW 17:06:58 11° ENE
Starlink C 3.3 17:03:04 10° W 17:06:04 52° NNW 17:08:50 12° ENE
Cosmos-2242 3.9 17:02:56 10° NNE 17:06:38 27° ENE 17:10:18 10° SE
Starlink E 3.3 17:04:43 10° W 17:07:44 51° NNW 17:10:26 12° NE
USA 234 3.8 17:02:21 10° SE 17:08:50 66° SW 17:15:21 10° WNW
Starlink J 3.4 17:06:23 10° W 17:09:24 50° NNW 17:12:02 13° NE
YAOGAN 1 3.5 17:05:59 10° ESE 17:09:38 27° ENE 17:13:18 10° N
Cosmos 1241 Rocket 4.4 17:04:03 10° NW 17:10:17 82° NE 17:16:33 10° SE
Cosmos 2184 Rocket 4.2 17:04:41 10° SSW 17:10:51 78° W 17:17:03 10° N
Starlink V 3.4 17:08:03 10° W 17:11:02 49° NNW 17:13:36 13° NE
Starlink H 3.4 17:09:43 10° W 17:12:43 48° NNW 17:15:13 14° NE
Starlink F 3.4 17:11:24 10° W 17:14:24 47° NNW 17:16:50 14° NE
Starlink G 3.5 17:13:04 10° W 17:16:04 46° NNW 17:18:26 15° NE
Starlink L 3.5 17:14:46 10° W 17:17:45 45° NNW 17:20:03 15° NE
Cosmos 2154 Rocket 4.0 17:12:58 10° S 17:19:15 80° E 17:25:30 10° N
Starlink A 3.5 17:16:27 10° W 17:19:26 44° NNW 17:21:40 16° NE
Cosmos 1242 Rocket 3.1 17:16:59 10° SSW 17:20:27 60° WNW 17:24:00 10° N
Starlink R 3.6 17:18:09 10° W 17:21:08 44° NNW 17:23:18 16° NE
Starlink K 3.6 17:19:49 10° W 17:22:47 43° NNW 17:24:53 17° NE
ATLAS CENTAUR R/B 2.9 17:20:36 10° NNW 17:23:36 19° NNE 17:25:05 16° ENE
USA 32 4.2 17:19:05 10° SSE 17:24:08 52° E 17:29:12 10° NNE
Starlink M 3.6 17:21:28 10° W 17:24:26 42° NNW 17:26:28 17° NE
ISS -2.0 17:24:18 10° S 17:26:49 20° SE 17:28:19 15° ESE
Cosmos 1602 Rocket 3.6 17:22:53 10° SSW 17:27:16 81° W 17:31:40 10° N
CZ-4 R/B 1.5 17:26:53 10° SSE 17:30:48 52° ENE 17:34:51 10° N
SMAP 4.4 17:27:00 10° S 17:31:25 43° W 17:35:52 10° NNW
Cosmos 1300 3.9 17:30:21 10° NNW 17:34:02 46° W 17:37:41 10° SSW
Cosmos 2237 Rocket 2.2 17:29:04 10° NNW 17:34:44 89° WSW 17:40:22 10° SSE
ATLAS CENTAUR R/B 4.1 17:29:04 10° W 17:34:45 62° NNW 17:48:22 14° ENE
Cosmos 1295 Rocket 4.5 17:29:25 10° S 17:35:45 82° E 17:42:06 10° N
YAOGAN 6 2.6 17:33:07 10° SSE 17:36:49 84° WSW 17:40:30 10° NNW
Cosmos 1125 Rocket 3.8 17:32:08 10° SSW 17:37:18 67° WNW 17:42:31 10° NNE
COSMO-SKYMED 1 2.6 17:33:43 10° NNE 17:38:02 62° ESE 17:42:20 10° S
CZ-2D R/B 3.8 17:35:45 10° SE 17:39:15 35° ENE 17:42:47 10° N
Cosmos 1953 Rocket 4.1 17:35:30 10° SSE 17:39:38 38° E 17:43:48 10° NNE
Cosmos 2333 Rocket 4.2 17:35:08 10° NW 17:40:08 32° WSW 17:45:04 10° SSW
Cosmos 1626 3.3 17:36:35 10° SSW 17:40:08 44° WNW 17:43:43 10° N
NOSS 2-1 (E) 4.4 17:35:33 10° NW 17:40:50 73° NE 17:48:17 10° SE
ADEOS Rocket 4.0 17:38:37 10° NNE 17:44:22 30° E 17:50:35 10° SSE
Cosmos 1758 Rocket 3.4 17:40:12 10° S 17:44:28 69° E 17:48:47 10° NNE
Cosmos 2366 rocket 4.3 17:39:03 10° SSE 17:44:51 44° E 17:50:45 10° NNE
CZ-4 R/B 4.3 17:41:10 10° SSE 17:45:18 83° ENE 17:49:27 10° NNW
CSL-04 Rocket 3.7 17:40:16 10° SSE 17:45:40 60° ENE 17:51:09 10° N
Envisat 3.8 17:41:45 10° S 17:46:44 55° W 17:51:45 10° NNW
Cosmos 1455 2.2 17:45:24 10° N 17:49:10 52° ENE 17:52:51 10° SSE
Cosmos 1356 Rocket 4.3 17:46:33 10° N 17:49:34 26° ENE 17:49:34 26° ENE
ATLAS 5 CENTAUR R/B 3.7 17:46:41 10° WNW 17:50:07 21° NNW 17:53:53 10° NNE
Cosmos 962 Rocket 4.4 17:45:20 10° S 17:51:28 89° E 17:57:40 10° N
ERBS 2.1 17:51:13 10° SW 17:54:32 81° SE 17:55:37 40° ENE
SL-16 R/B 2.2 17:51:25 10° NNW 17:57:02 57° ENE 18:02:36 10° SE
Starlink AS 3.9 17:54:43 10° WNW 17:57:24 31° N 17:57:52 29° N
Starlink BA 3.9 17:54:58 10° WNW 17:57:38 31° N 17:58:05 29° N
Starlink AU 3.9 17:55:11 10° WNW 17:57:51 31° N 17:58:18 29° N
Okean-O 3.8 17:53:48 10° S 17:58:02 45° W 18:02:19 10° NNW
Starlink AQ 3.9 17:55:23 10° WNW 17:58:05 31° N 17:58:33 29° N
Starlink AT 3.9 17:55:26 10° WNW 17:58:06 31° N 17:58:32 29° N
Starlink BB 3.9 17:55:39 10° WNW 17:58:19 31° N 17:58:44 29° N
Starlink BC 3.9 17:55:52 10° WNW 17:58:32 31° N 17:58:58 29° N
Starlink BK 3.9 17:56:06 10° WNW 17:58:46 31° N 17:59:11 29° N
Starlink AY 3.9 17:56:20 10° WNW 17:58:59 31° N 17:59:24 29° N
Starlink AW 3.9 17:56:33 10° WNW 17:59:14 31° N 17:59:37 29° N
Starlink BJ 3.9 17:56:47 10° WNW 17:59:27 31° N 17:59:50 29° N
Starlink AV 3.9 17:57:00 10° WNW 17:59:40 30° N 18:00:03 29° N
CZ-4C R/B 4.1 17:52:47 10° NW 17:59:40 45° WSW 18:07:22 10° S
Starlink BD 3.9 17:57:15 10° WNW 17:59:54 30° N 18:00:16 29° N
Starlink BE 3.9 17:57:27 10° WNW 18:00:09 31° N 18:00:31 29° N
Starlink BM 3.9 17:57:42 10° WNW 18:00:21 30° N 18:00:42 29° N
Starlink AX 3.9 17:57:55 10° WNW 18:00:35 30° N 18:00:56 29° N
Starlink BH 3.9 17:58:09 10° WNW 18:00:49 30° N 18:01:09 29° N
Starlink AZ 3.9 17:58:22 10° WNW 18:01:01 30° N 18:01:21 29° N
Starlink BG 3.9 17:58:36 10° WNW 18:01:15 30° N 18:01:34 29° N
Starlink BF 3.9 17:58:49 10° WNW 18:01:28 30° N 18:01:47 29° N
Starlink BL 3.9 17:59:01 10° WNW 18:01:43 30° N 18:02:01 30° N
Cosmos 724 4.3 17:55:44 10° SW 18:01:43 87° NW 18:06:12 18° NE
Starlink AH 3.9 17:59:17 10° WNW 18:01:56 30° N 18:02:13 29° N
Starlink AC 3.9 17:59:32 10° WNW 18:02:10 30° N 18:02:26 29° N
Starlink X 3.9 17:59:44 10° WNW 18:02:23 30° N 18:02:39 30° N
Starlink AE 3.9 17:59:54 10° WNW 18:02:36 30° N 18:02:54 30° N
Starlink Z 3.9 18:00:12 10° WNW 18:02:51 30° N 18:03:05 30° N
Starlink AK 3.9 18:00:25 10° WNW 18:03:04 30° N 18:03:18 30° N
Starlink AL 3.9 18:00:38 10° WNW 18:03:17 30° N 18:03:30 30° N
Starlink AD 3.9 18:00:52 10° WNW 18:03:31 30° N 18:03:44 30° N
Meteor 1-21 Rocket 4.2 17:58:01 10° S 18:03:38 86° WNW 18:09:23 10° N
Cosmos 2219 3.3 17:58:18 10° SSW 18:03:54 76° WNW 18:09:12 12° NNE
Starlink Y 3.9 18:01:19 10° WNW 18:03:58 30° N 18:04:09 30° N
Starlink AG 3.9 18:01:32 10° WNW 18:04:12 30° N 18:04:22 30° N
Starlink W 3.9 18:01:43 10° WNW 18:04:24 30° N 18:04:36 30° N
Cosmos 1328 3.9 18:00:38 10° S 18:04:32 52° E 18:06:15 29° NNE
Starlink AJ 3.9 18:01:59 10° WNW 18:04:38 30° N 18:04:48 30° N
Starlink AM 4.0 18:02:27 10° WNW 18:05:06 30° N 18:05:15 30° N
Starlink AP 4.0 18:02:40 10° WNW 18:05:19 30° N 18:05:27 30° N
Starlink AA 4.0 18:02:53 10° WNW 18:05:33 30° N 18:05:40 30° N
Starlink AF 4.0 18:03:07 10° WNW 18:05:46 30° N 18:05:53 30° N
Starlink AB 4.0 18:03:21 10° WNW 18:05:59 30° N 18:06:06 30° N
Starlink AN 4.0 18:03:34 10° WNW 18:06:12 30° N 18:06:18 30° N
Cosmos 2082 3.9 18:00:55 10° S 18:06:16 48° ESE 18:08:58 27° NE
Cosmos 1825 Rocket 3.7 18:04:54 10° SSW 18:09:14 76° W 18:13:36 10° N
Cosmos 1727 Rocket 4.0 18:03:45 10° N 18:09:52 57° ENE 18:15:55 10° SSE
Cosmos 2297 Rocket 2.2 18:10:17 10° SSW 18:15:57 85° WNW 18:20:18 18° NNE
USA 267 3.9 18:12:10 22° NE 18:16:09 48° NNW 18:22:20 10° W
SL-8 Rocket 4.0 18:14:26 10° S 18:20:46 84° W 18:27:06 10° N
Starlink T 4.4 18:19:47 10° WNW 18:22:00 27° NNW 18:22:00 27° NNW
Starlink N 4.4 18:21:15 10° WNW 18:23:25 27° NNW 18:23:25 27° NNW
Shenzhou-11 Module 4.3 18:25:32 10° SW 18:26:25 15° SSW 18:26:25 15° SSW
USA 116 3.5 18:27:57 64° WNW 18:28:02 64° WNW 18:31:05 10° SSW
Cosmos 2227 Rocket 2.3 18:22:48 10° SSW 18:28:28 76° WNW 18:32:19 21° NNE
Ariane Rocket 2.9 18:25:01 10° SSE 18:30:00 66° ENE 18:35:04 10° N
Cosmos 1939 Rocket 3.5 18:30:23 10° S 18:34:13 55° W 18:38:08 10° NNW
SJ-11-01 4.3 18:37:22 59° NE 18:37:22 59° NE 18:41:38 10° N
SL-8 R/B 3.8 18:33:33 10° SW 18:38:16 59° SSE 18:38:29 59° SE
ARGOS 4.1 18:40:06 31° NNE 18:40:06 31° NNE 18:43:20 10° N
Meteor 2-10 Rocket 4.4 18:37:55 10° NNW 18:43:05 50° W 18:48:01 10° SSW
Cosmos 1943 4.2 18:39:07 10° NNW 18:42:49 30° NNE 18:42:49 30° NNE
Cosmos 1703 3.8 18:40:38 10° SSW 18:44:33 57° WNW 18:45:38 41° NNW
YAOGAN 1 4.2 18:41:40 10° SSW 18:45:37 34° W 18:49:35 10° NNW
H-2A R/B 3.1 18:52:43 31° N 18:52:43 31° N 18:55:30 10° N
Cosmos 44 3.1 18:47:44 10° SW 18:52:11 74° WNW 18:52:11 74° WNW
Cosmos 1821 Rocket 4.0 18:47:20 10° S 19:01:33 - NNE 18:52:56 56° ESE
Cosmos 2251 Rocket 4.0 18:52:34 10° NNW 18:57:47 59° WSW 19:02:01 16° S
ATLAS CENTAUR R/B 2.8 18:59:02 10° NW 19:01:19 31° NW 19:01:19 31° NW
ISS -1.3 18:59:54 10° WSW 19:01:16 22° WSW 19:01:16 22° WSW
CZ-4 R/B 4.4 19:03:36 10° SW 19:06:10 16° W 19:08:47 10° NW
Atlas Centaur 2 4.4 19:13:04 10° SSW 19:14:16 12° S 19:14:16 12° S
CZ-2C R/B 4.5 19:23:28 31° N 19:23:28 31° N 19:26:20 10° NNW
ADEOS Rocket 3.7 19:23:46 10° N 19:30:08 60° WNW 19:37:11 10° SW
ATLAS 5 CENTAUR R/B 4.3 19:34:00 10° NNW 19:35:26 13° NNW 19:35:26 13° NNW
SL-16 R/B 4.1 19:36:11 10° NW 19:40:46 26° WSW 19:45:19 10° SSW
USA 267 4.2 19:59:31 37° NNW 19:59:31 37° NNW 20:04:25 10° WNW
Cosmos 2297 Rocket 4.3 19:56:49 10° W 20:00:53 20° NW 20:02:09 18° NNW
Cosmos 2227 Rocket 4.4 20:09:43 10° W 20:13:31 18° NW 20:14:11 18° NNW
